CW5391 Weather Reports


time (UTC)temp
C
wind
direction
speed
KPH
gust
KPH
rain 1hr
cm
rain 24hr
cm
rain mn
cm
humidity
%
barometer
mb
20260905220327 20 317 4.8 9.7 0.00 0.00 0.00 74 1008.7
20260905215842 20 5 3.2 11.3 0.00 0.00 0.00 76 1008.5
20260905215319 20 326 4.8 14.5 0.00 0.00 0.00 76 1008.5
20260905214825 20 330 6.4 16.1 0.00 0.00 0.00 75 1008.5
20260905214331 20 339 6.4 16.1 0.00 0.00 0.00 74 1008.5
20260905213839 20 315 6.4 16.1 0.00 0.00 0.00 75 1008.5
20260905213344 20 296 4.8 12.9 0.00 0.00 0.00 75 1008.5
20260905212848 20 298 6.4 14.5 0.00 0.00 0.00 74 1008.5
20260905212335 20 318 6.4 14.5 0.00 0.00 0.00 73 1008.5
20260905211815 20 296 6.4 12.9 0.00 0.00 0.00 72 1008.5
20260905211321 21 286 6.4 12.9 0.00 0.00 0.00 73 1008.4
20260905210824 21 38 6.4 12.9 0.00 0.00 0.00 73 1008.4
20260905210328 21 312 6.4 20.9 0.00 0.00 0.00 71 1008.4
20260905205827 21 5 8.0 20.9 0.00 0.00 0.00 72 1008.4
20260905205327 21 15 6.4 17.7 0.00 0.00 0.00 73 1008.4
20260905204816 21 5 6.4 22.5 0.00 0.00 0.00 72 1008.4
20260905204326 21 16 8.0 22.5 0.00 0.00 0.00 70 1008.2
20260905203838 21 266 11.3 20.9 0.00 0.00 0.00 69 1008.2
20260905203314 21 316 9.7 19.3 0.00 0.00 0.00 70 1008.2
20260905202856 21 5 6.4 16.1 0.00 0.00 0.00 72 1008.1
20260905202320 21 275 6.4 16.1 0.00 0.00 0.00 73 1008.1
20260905201832 21 335 8.0 16.1 0.00 0.00 0.00 71 1008.1
20260905201321 21 355 8.0 16.1 0.00 0.00 0.00 71 1008.0
20260905200849 21 292 8.0 16.1 0.00 0.00 0.00 74 1008.0
20260905200337 21 360 4.8 16.1 0.00 0.00 0.00 75 1008.0
20260905195815 21 348 9.7 19.3 0.00 0.00 0.00 75 1008.1
20260905195327 20 9 9.7 19.3 0.00 0.00 0.00 75 1008.1
20260905194851 20 311 6.4 12.9 0.00 0.00 0.00 76 1008.1
20260905194316 20 355 4.8 9.7 0.00 0.00 0.00 78 1008.2
20260905193827 20 360 4.8 14.5 0.00 0.00 0.00 77 1008.2
20260905193339 20 308 6.4 14.5 0.00 0.00 0.00 77 1008.2
20260905192822 20 339 8.0 16.1 0.00 0.00 0.00 76 1008.1
20260905192321 20 327 9.7 16.1 0.00 0.00 0.00 74 1008.1
20260905191825 21 334 8.0 16.1 0.00 0.00 0.00 74 1008.1
20260905191313 21 331 6.4 12.9 0.00 0.00 0.00 75 1008.1
20260905190819 21 347 6.4 12.9 0.00 0.00 0.00 74 1008.1
20260905190322 21 19 4.8 14.5 0.00 0.00 0.00 77 1008.1
20260905185828 21 327 4.8 14.5 0.00 0.00 0.00 78 1008.2
20260905185335 21 328 6.4 14.5 0.00 0.00 0.00 76 1008.2
20260905184829 21 321 6.4 14.5 0.00 0.00 0.00 76 1008.2
20260905184318 21 349 6.4 14.5 0.00 0.00 0.00 76 1008.1
20260905183836 20 333 6.4 14.5 0.00 0.00 0.00 77 1008.1
20260905183342 20 345 6.4 14.5 0.00 0.00 0.00 78 1008.1
20260905182826 20 323 6.4 14.5 0.00 0.00 0.00 79 1008.1
20260905182318 21 311 8.0 19.3 0.00 0.00 0.00 78 1008.1
20260905181824 21 303 8.0 19.3 0.00 0.00 0.00 76 1008.1
20260905181343 21 329 4.8 11.3 0.00 0.00 0.00 78 1008.1
20260905180815 21 315 4.8 12.9 0.00 0.00 0.00 78 1008.1
20260905180350 21 331 4.8 11.3 0.00 0.00 0.00 76 1008.1
20260905175818 21 67 4.8 11.3 0.00 0.00 0.00 78 1008.2
20260905175320 21 312 3.2 8.0 0.00 0.00 0.00 78 1008.2
20260905174813 21 312 4.8 11.3 0.00 0.00 0.00 80 1008.2
20260905174340 20 24 6.4 11.3 0.00 0.00 0.00 79 1008.3
20260905173826 20 323 4.8 12.9 0.00 0.00 0.00 82 1008.3
20260905173329 20 292 4.8 12.9 0.00 0.00 0.00 82 1008.3
20260905172832 20 334 4.8 12.9 0.00 0.00 0.00 83 1008.2
20260905172334 20 321 8.0 12.9 0.00 0.00 0.00 82 1008.2
20260905171817 20 338 6.4 12.9 0.00 0.00 0.00 81 1008.2
20260905171319 20 291 3.2 14.5 0.00 0.00 0.00 81 1008.2
20260905170825 20 15 4.8 14.5 0.00 0.00 0.00 80 1008.2
20260905170328 20 338 6.4 12.9 0.00 0.00 0.00 79 1008.2
20260905165814 20 30 4.8 16.1 0.00 0.00 0.00 80 1008.2
20260905165314 20 303 4.8 16.1 0.00 0.00 0.00 81 1008.2
20260905164820 20 321 4.8 17.7 0.00 0.00 0.00 80 1008.2
20260905164325 20 343 6.4 16.1 0.00 0.00 0.00 82 1008.3
20260905163814 20 305 6.4 14.5 0.00 0.00 0.00 82 1008.3
20260905163311 20 330 6.4 16.1 0.00 0.00 0.00 85 1008.3
20260905162830 20 272 6.4 12.9 0.00 0.00 0.00 84 1008.5
20260905162330 20 331 6.4 11.3 0.00 0.00 0.00 83 1008.5
20260905161813 20 324 6.4 11.3 0.00 0.00 0.00 86 1008.5
20260905161344 20 344 4.8 11.3 0.00 0.00 0.00 87 1008.5
20260905160817 19 283 4.8 11.3 0.00 0.00 0.00 90 1008.5
20260905160347 19 347 4.8 9.7 0.00 0.00 0.00 90 1008.5
20260905155847 18 333 4.8 12.9 0.00 0.00 0.00 91 1008.7
20260905155352 18 313 4.8 11.3 0.00 0.00 0.00 90 1008.7
20260905154834 18 300 4.8 9.7 0.00 0.00 0.00 91 1008.7
20260905154323 18 294 4.8 19.3 0.00 0.00 0.00 90 1008.9
20260905153814 18 349 4.8 19.3 0.00 0.00 0.00 90 1008.9
20260905153317 18 347 6.4 19.3 0.00 0.00 0.00 87 1008.9
20260905152855 18 360 6.4 19.3 0.00 0.00 0.00 86 1008.8
20260905152313 18 313 6.4 14.5 0.00 0.00 0.00 84 1008.8
20260905151820 19 304 6.4 11.3 0.00 0.00 0.00 84 1008.8
20260905151326 18 326 6.4 12.9 0.00 0.00 0.00 85 1008.8
20260905150831 18 355 6.4 12.9 0.00 0.00 0.00 85 1008.8
20260905150344 18 63 6.4 11.3 0.00 0.00 0.00 85 1008.8
20260905145824 18 310 4.8 14.5 0.00 0.00 0.00 87 1008.5
20260905145317 18 360 6.4 12.9 0.00 0.00 0.00 88 1008.5
20260905144825 18 300 4.8 12.9 0.00 0.00 0.00 87 1008.5
20260905144407 18 289 4.8 11.3 0.00 0.00 0.00 88 1008.6
20260905143847 18 331 4.8 9.7 0.00 0.00 0.00 90 1008.6
20260905143321 18 268 3.2 9.7 0.00 0.00 0.00 90 1008.6
20260905142830 18 5 3.2 9.7 0.00 0.00 0.00 89 1008.7
20260905142342 18 294 4.8 12.9 0.00 0.00 0.00 88 1008.7
20260905141824 18 312 6.4 17.7 0.00 0.00 0.00 87 1008.7
20260905141330 18 17 6.4 17.7 0.00 0.00 0.00 88 1008.7
20260905140817 18 316 4.8 12.9 0.00 0.00 0.00 88 1008.7
20260905140340 18 323 3.2 9.7 0.00 0.00 0.00 90 1008.7
20260905135829 17 314 3.2 8.0 0.00 0.00 0.00 91 1008.6
20260905135322 17 312 4.8 14.5 0.00 0.00 0.00 91 1008.6
20260905134838 17 347 4.8 14.5 0.00 0.00 0.00 93 1008.6
20260905134323 17 339 6.4 14.5 0.00 0.00 0.00 93 1008.7
20260905133815 17 355 4.8 9.7 0.00 0.00 0.00 95 1008.7
20260905133318 16 321 3.2 9.7 0.00 0.00 0.00 95 1008.7
20260905132837 16 346 3.2 8.0 0.00 0.00 0.00 96 1008.5
20260905132313 16 339 3.2 8.0 0.00 0.00 0.00 97 1008.5
20260905131822 16 29 3.2 8.0 0.00 0.00 0.00 97 1008.5
20260905131330 16 332 3.2 8.0 0.00 0.00 0.00 97 1008.5
20260905130842 16 333 1.6 6.4 0.00 0.00 0.00 98 1008.5
20260905130325 16 309 0.0 3.2 0.00 0.00 0.00 98 1008.5
20260905125816 16 309 0.0 3.2 0.00 0.00 0.00 98 1008.4
20260905125352 16 343 0.0 4.8 0.00 0.00 0.00 98 1008.4
20260905124844 16 343 0.0 4.8 0.00 0.00 0.00 98 1008.4
20260905124326 15 332 0.0 4.8 0.00 0.00 0.00 98 1008.4
20260905123829 15 332 0.0 4.8 0.00 0.00 0.00 98 1008.4
20260905123320 15 332 526.3 4.8 0.00 0.00 0.00 98 1008.4
20260905122836 15 332 526.3 0.0 0.00 0.00 0.00 98 1008.3
20260905122329 -17 0.0 0.0 0.00 0.00 0.00 1008.3
20260905121832 -17 0.0 0.0 0.00 0.00 0.00 1008.3
20260905121315 -17 0.0 0.0 0.00 0.00 0.00 1008.1
20260905120315 -17 0.0 0.0 0.00 0.00 0.00 1008.1
20260905115820 -17 0.0 0.0 0.00 0.00 0.00 1007.9
20260905115323 -17 0.0 0.0 0.00 0.00 0.00 1007.9
20260905114822 -17 0.0 0.0 0.00 0.00 0.00 1007.9
20260905114338 -17 0.0 0.0 0.00 0.00 0.00 1007.9
20260905113829 -17 0.0 0.0 0.00 0.00 0.00 1007.9
20260905112840 -17 0.0 0.0 0.00 0.00 0.00 1007.9
20260905112330 -17 0.0 0.0 0.00 0.00 0.00 1007.9
20260905111813 -17 0.0 0.0 0.00 0.00 0.00 1007.9
20260905111324 -17 0.0 0.0 0.00 0.00 0.00 1007.6
20260905110848 -17 0.0 0.0 0.00 0.00 0.00 1007.6
20260905110335 -17 0.0 0.0 0.00 0.00 0.00 1007.6
20260905105831 -17 0.0 0.0 0.00 0.00 0.00 1007.5
20260905105321 -17 0.0 0.0 0.00 0.00 0.00 1007.5
20260905104824 -17 0.0 0.0 0.00 0.00 0.00 1007.5
20260905103831 -17 0.0 0.0 0.00 0.00 0.00 1007.4
20260905103336 -17 0.0 0.0 0.00 0.00 0.00 1007.4
20260905102826 -17 0.0 0.0 0.00 0.00 0.00 1007.3
20260905102324 -17 0.0 0.0 0.00 0.00 0.00 1007.3
20260905101828 -17 0.0 0.0 0.00 0.00 0.00 1007.3
20260905101316 -17 0.0 0.0 0.00 0.00 0.00 1007.3
20260905100317 -17 0.0 0.0 0.00 0.00 0.00 1007.3
20260905095821 -17 0.0 0.0 0.00 0.00 0.00 1007.3
20260905095325 -17 0.0 0.0 0.00 0.00 0.00 1007.3
20260905094833 -17 0.0 0.0 0.00 0.00 0.00 1007.3
20260905094336 -17 0.0 0.0 0.00 0.00 0.00 1007.2
20260905093841 -17 0.0 0.0 0.00 0.00 0.00 1007.2
20260905093410 13 332 0.0 0.0 0.00 0.00 0.00 96 1007.2
20260905092838 13 332 0.0 0.0 0.00 0.00 0.00 96 1007.0
20260905092319 13 332 0.0 0.0 0.00 0.00 0.00 96 1007.0
20260905091850 13 332 0.0 0.0 0.00 0.00 0.00 96 1007.0
20260905091315 13 332 0.0 0.0 0.00 0.00 0.00 96 1007.1
20260905090812 13 332 0.0 0.0 0.00 0.00 0.00 96 1007.1
20260905090326 13 332 0.0 0.0 0.00 0.00 0.00 96 1007.1
20260905085827 13 332 0.0 0.0 0.00 0.00 0.00 96 1006.9
20260905085334 13 332 0.0 0.0 0.00 0.00 0.00 96 1006.9
20260905084839 13 332 0.0 0.0 0.00 0.00 0.00 96 1006.9
20260905084345 13 332 0.0 0.0 0.00 0.00 0.00 96 1006.9
20260905083837 13 332 0.0 0.0 0.00 0.00 0.00 96 1006.9
20260905083328 13 332 0.0 0.0 0.00 0.00 0.00 96 1006.9
20260905082843 13 332 0.0 0.0 0.00 0.00 0.00 96 1006.9
20260905082336 13 332 0.0 0.0 0.00 0.00 0.00 96 1006.9
20260905081819 13 332 0.0 0.0 0.00 0.00 0.00 96 1006.9
20260905081324 13 332 0.0 0.0 0.00 0.00 0.00 96 1006.9
20260905080827 13 332 0.0 0.0 0.00 0.00 0.00 96 1006.9
20260905080334 13 332 0.0 0.0 0.00 0.00 0.00 96 1006.9
20260905075836 13 332 0.0 0.0 0.00 0.00 0.00 96 1006.9
20260905075323 13 332 0.0 0.0 0.00 0.00 0.00 96 1006.9
20260905074828 13 332 0.0 0.0 0.00 0.00 0.00 96 1006.9
20260905074314 13 332 0.0 0.0 0.00 0.00 0.00 95 1007.0
20260905073821 13 332 0.0 0.0 0.00 0.00 0.00 95 1007.0
20260905073334 13 332 0.0 0.0 0.00 0.00 0.00 95 1007.0
20260905072826 14 332 0.0 0.0 0.00 0.00 0.00 95 1007.0
20260905072316 14 332 0.0 0.0 0.00 0.00 0.00 95 1007.0
20260905071825 14 332 0.0 0.0 0.00 0.00 0.00 95 1007.0
20260905071315 14 332 0.0 0.0 0.00 0.00 0.00 96 1007.3
20260905070845 14 332 0.0 0.0 0.00 0.00 0.00 96 1007.3
20260905070350 14 332 0.0 0.0 0.00 0.00 0.00 96 1007.3
20260905065813 14 332 0.0 0.0 0.00 0.00 0.00 96 1007.4
20260905065338 14 332 0.0 0.0 0.00 0.00 0.00 96 1007.4
20260905064812 14 332 0.0 0.0 0.00 0.00 0.00 95 1007.4
20260905064316 14 332 0.0 0.0 0.00 0.00 0.00 96 1007.4
20260905063818 14 332 0.0 0.0 0.00 0.00 0.00 96 1007.4
20260905063322 14 332 0.0 0.0 0.00 0.00 0.00 96 1007.4
20260905062829 14 332 0.0 0.0 0.00 0.00 0.00 95 1007.4
20260905062321 14 332 0.0 0.0 0.00 0.00 0.00 95 1007.4
20260905061826 15 332 0.0 0.0 0.00 0.00 0.00 95 1007.4
20260905061313 14 332 0.0 0.0 0.00 0.00 0.00 95 1007.5
20260905060816 15 332 0.0 0.0 0.00 0.00 0.00 95 1007.5
20260905060341 15 332 0.0 0.0 0.00 0.00 0.00 95 1007.5
20260905055846 15 332 0.0 0.0 0.00 0.00 0.00 94 1007.5
20260905055332 15 332 0.0 0.0 0.00 0.00 0.00 94 1007.5
20260905054837 15 332 0.0 0.0 0.00 0.00 0.00 94 1007.5
20260905054317 15 332 0.0 0.0 0.00 0.00 0.00 94 1007.4
20260905053824 15 332 0.0 0.0 0.00 0.00 0.00 94 1007.4
20260905053315 15 332 0.0 0.0 0.00 0.00 0.00 94 1007.4
20260905052825 15 332 0.0 0.0 0.00 0.00 0.00 93 1007.4
20260905052332 15 332 0.0 0.0 0.00 0.00 0.00 94 1007.4
20260905051821 15 332 0.0 0.0 0.00 0.00 0.00 94 1007.4
20260905051350 15 332 0.0 0.0 0.00 0.00 0.00 94 1007.5
20260905050817 15 332 0.0 0.0 0.00 0.00 0.00 94 1007.5
20260905050318 15 332 0.0 0.0 0.00 0.00 0.00 94 1007.5
20260905045825 15 332 0.0 0.0 0.00 0.00 0.00 93 1007.5
20260905045405 15 332 0.0 0.0 0.00 0.00 0.00 93 1007.5
20260905044815 16 332 0.0 0.0 0.00 0.00 0.00 93 1007.5
20260905044326 16 332 0.0 0.0 0.00 0.00 0.00 92 1007.8
20260905043832 16 332 0.0 0.0 0.00 0.00 0.00 93 1007.8
20260905043331 16 332 0.0 1.6 0.00 0.00 0.00 92 1007.8
20260905042837 16 332 0.0 1.6 0.00 0.00 0.00 92 1007.9
20260905042328 16 332 0.0 1.6 0.00 0.00 0.00 92 1007.9
20260905041831 16 332 0.0 3.2 0.00 0.00 0.00 91 1007.9
20260905041315 16 332 0.0 3.2 0.00 0.00 0.00 90 1007.8
20260905040819 16 332 0.0 3.2 0.00 0.00 0.00 90 1007.8
20260905040315 17 332 0.0 3.2 0.00 0.00 0.00 90 1007.8
20260905035822 17 332 0.0 1.6 0.00 0.00 0.00 90 1007.8
20260905035332 17 332 0.0 1.6 0.00 0.00 0.00 90 1007.8
20260905034822 17 332 0.0 0.0 0.00 0.00 0.00 89 1007.8
20260905034350 17 332 0.0 0.0 0.00 0.00 0.00 89 1007.6
20260905033837 17 332 0.0 0.0 0.00 0.00 0.00 89 1007.6
20260905033323 17 332 0.0 0.0 0.00 0.00 0.00 89 1007.6
20260905032832 17 332 0.0 1.6 0.00 0.00 0.00 89 1007.5
20260905032320 17 332 0.0 3.2 0.00 0.00 0.00 89 1007.5
20260905031824 17 332 0.0 3.2 0.00 0.00 0.00 89 1007.5
20260905031328 17 332 0.0 0.0 0.00 0.00 0.00 89 1007.6
20260905030832 17 332 0.0 0.0 0.00 0.00 0.00 89 1007.6
20260905030342 17 332 0.0 0.0 0.00 0.00 0.00 89 1007.6
20260905025849 17 332 0.0 0.0 0.00 0.00 0.00 89 1007.8
20260905025331 17 332 0.0 0.0 0.00 0.00 0.00 89 1007.8
20260905024839 17 332 0.0 0.0 0.00 0.00 0.00 89 1007.8
20260905024323 17 332 0.0 0.0 0.00 0.00 0.00 89 1007.8
20260905023847 17 332 0.0 1.6 0.00 0.00 0.00 89 1007.8
20260905023328 18 332 0.0 3.2 0.00 0.00 0.00 89 1007.8
20260905022816 17 332 0.0 3.2 0.00 0.00 0.00 89 1007.8
20260905022346 18 332 0.0 0.0 0.00 0.00 0.00 89 1007.8
20260905021832 18 332 0.0 0.0 0.00 0.00 0.00 89 1007.8
20260905021317 18 332 0.0 0.0 0.00 0.00 0.00 89 1007.9
20260905020821 18 332 0.0 0.0 0.00 0.00 0.00 89 1007.9
20260905020325 18 332 0.0 3.2 0.00 0.00 0.00 89 1007.9
20260905015828 18 332 0.0 3.2 0.00 0.00 0.00 89 1007.9
20260905015336 18 332 0.0 0.0 0.00 0.00 0.00 88 1007.9
20260905014826 18 332 0.0 0.0 0.00 0.00 0.00 88 1007.9
20260905014329 18 332 0.0 0.0 0.00 0.00 0.00 88 1007.9
20260905013834 18 332 0.0 0.0 0.00 0.00 0.00 88 1007.9
20260905013331 18 332 0.0 0.0 0.00 0.00 0.00 88 1007.9
20260905012839 18 332 0.0 0.0 0.00 0.00 0.00 88 1008.0
20260905012322 18 332 0.0 8.0 0.00 0.00 0.00 88 1008.0
20260905011838 18 332 0.0 8.0 0.00 0.00 0.00 88 1008.0
20260905011344 18 332 0.0 8.0 0.00 0.00 0.00 87 1007.9
20260905010835 18 332 1.6 8.0 0.00 0.00 0.00 87 1007.9
20260905010328 18 332 1.6 11.3 0.00 0.00 0.00 87 1007.9
20260905005815 18 360 1.6 11.3 0.00 0.00 0.00 86 1007.8
20260905005321 18 355 0.0 4.8 0.00 0.00 0.00 87 1007.8
20260905004847 18 47 0.0 0.0 0.00 0.00 0.00 87 1007.8
20260905004331 18 47 0.0 0.0 0.00 0.00 0.00 86 1007.7
20260905003836 18 47 0.0 1.6 0.00 0.00 0.00 86 1007.7
20260905003317 18 47 0.0 1.6 0.00 0.00 0.00 85 1007.7
20260905002856 18 47 0.0 0.0 0.00 0.00 0.00 85 1007.5
20260905002327 18 47 0.0 0.0 0.00 0.00 0.00 83 1007.5
20260905001831 18 47 0.0 0.0 0.00 0.00 0.00 83 1007.5
20260905001315 19 47 0.0 3.2 0.00 0.00 0.00 83 1007.5
20260905000827 19 47 1.6 3.2 0.00 0.00 0.00 82 1007.5
20260905000313 19 47 1.6 3.2 0.00 0.00 0.00 83 1007.5
20260904235819 19 113 0.0 3.2 0.00 0.00 0.00 84 1007.4
20260904235345 19 113 0.0 1.6 0.00 0.00 0.00 83 1007.4
20260904234831 19 113 0.0 1.6 0.00 0.00 0.00 82 1007.4
20260904234316 20 113 0.0 1.6 0.00 0.00 0.00 83 1007.1
20260904233820 20 113 0.0 1.6 0.00 0.00 0.00 81 1007.1
20260904233346 20 113 0.0 1.6 0.00 0.00 0.00 81 1007.1
20260904232828 20 113 0.0 0.0 0.00 0.00 0.00 81 1007.2
20260904232335 20 113 0.0 1.6 0.00 0.00 0.00 80 1007.2
20260904231812 20 113 0.0 3.2 0.00 0.00 0.00 79 1007.2
20260904231332 20 113 1.6 3.2 0.00 0.00 0.00 78 1007.0
20260904230825 20 113 1.6 3.2 0.00 0.00 0.00 79 1007.0
20260904230318 20 56 1.6 3.2 0.00 0.00 0.00 79 1007.0
20260904225824 20 56 1.6 3.2 0.00 0.00 0.00 79 1007.0
20260904225325 21 269 0.0 3.2 0.00 0.00 0.00 79 1007.0
20260904224849 21 269 0.0 1.6 0.00 0.00 0.00 79 1007.0
20260904224333 21 269 0.0 3.2 0.00 0.00 0.00 80 1006.9
20260904223848 21 269 0.0 3.2 0.00 0.00 0.00 79 1006.9
20260904223335 21 87 0.0 4.8 0.00 0.00 0.00 78 1006.9
20260904222820 21 336 1.6 4.8 0.00 0.00 0.00 77 1006.9
20260904222324 21 46 1.6 4.8 0.00 0.00 0.00 78 1006.9
20260904221818 21 111 0.0 1.6 0.00 0.00 0.00 79 1006.9
20260904221325 21 111 1.6 6.4 0.00 0.00 0.00 78 1006.9
20260904220829 22 111 1.6 4.8 0.00 0.00 0.00 77 1006.9